When you browse on this site, cookies collect data to enhance your experience and personalize the content and advertising you see.
Visit our Privacy Policy to learn more. By continuing to use the site, you agree to this use of cookies and data.
  • In Romania
  • List of Countries
  • For 7 days
  • Water Temperature
  • Satellite Maps
  • Weather Map
  • Weather Widgets
  • user-avatar
    Login

    Hourly Weather Shatry

    Today, 23 July, Tuesday

    Time Temperature Precipitation Wind Pressure Humidity
    00:00 +16°C° 0 mm 1 mps 742 mmHg 90%
    01:00 +16°C° 0 mm 1 mps 742 mmHg 92%
    02:00 +16°C° 0 mm 1 mps 742 mmHg 94%
    03:00 +16°C° 0 mm 1 mps 742 mmHg 93%
    04:00 +16°C° 0 mm 1 mps 742 mmHg 93%
    05:00 +16°C° 0 mm 1 mps 741 mmHg 92%
    06:00 +18°C° 0.1 mm 1 mps 741 mmHg 89%
    07:00 +18°C° 0.1 mm 2 mps 741 mmHg 87%
    08:00 +19°C° 0.1 mm 2 mps 741 mmHg 84%
    09:00 +20°C° 0.5 mm 2 mps 741 mmHg 82%
    10:00 +20°C° 0.5 mm 2 mps 741 mmHg 81%
    11:00 +21°C° 0.5 mm 2 mps 741 mmHg 79%
    12:00 +21°C° 0.7 mm 2 mps 742 mmHg 78%
    13:00 +23°C° 0.7 mm 2 mps 742 mmHg 77%
    14:00 +23°C° 0.7 mm 2 mps 742 mmHg 77%
    15:00 +23°C° 0.5 mm 2 mps 742 mmHg 78%
    16:00 +23°C° 0.5 mm 2 mps 742 mmHg 80%
    17:00 +23°C° 0.5 mm 2 mps 742 mmHg 82%
    18:00 +20°C° 0.3 mm 2 mps 742 mmHg 85%
    19:00 +19°C° 0.3 mm 2 mps 742 mmHg 88%
    20:00 +17°C° 0.3 mm 2 mps 742 mmHg 91%
    21:00 +16°C° 0 mm 2 mps 742 mmHg 92%
    22:00 +16°C° 0 mm 2 mps 742 mmHg 93%
    23:00 +15°C° 0 mm 2 mps 743 mmHg 94%

    Tomorrow, 24 July, Wednesday

    Time Temperature Precipitation Wind Pressure Humidity
    00:00 +15°C° 0 mm 2 mps 743 mmHg 94%
    01:00 +14°C° 0 mm 2 mps 743 mmHg 94%
    02:00 +14°C° 0 mm 2 mps 743 mmHg 94%
    03:00 +14°C° 0 mm 2 mps 743 mmHg 94%
    04:00 +14°C° 0 mm 2 mps 743 mmHg 93%
    05:00 +14°C° 0 mm 2 mps 743 mmHg 92%
    06:00 +15°C° 0 mm 2 mps 743 mmHg 84%
    07:00 +17°C° 0 mm 2 mps 743 mmHg 77%
    08:00 +19°C° 0 mm 3 mps 744 mmHg 69%
    09:00 +20°C° 0 mm 3 mps 744 mmHg 62%
    10:00 +21°C° 0 mm 3 mps 744 mmHg 55%
    11:00 +23°C° 0 mm 4 mps 744 mmHg 49%
    12:00 +23°C° 0 mm 4 mps 744 mmHg 48%
    13:00 +23°C° 0 mm 4 mps 744 mmHg 48%
    14:00 +25°C° 0 mm 5 mps 744 mmHg 48%
    15:00 +23°C° 0 mm 5 mps 744 mmHg 51%
    16:00 +22°C° 0 mm 5 mps 744 mmHg 54%
    17:00 +21°C° 0 mm 5 mps 744 mmHg 57%
    18:00 +19°C° 0 mm 4 mps 744 mmHg 64%
    19:00 +18°C° 0 mm 3 mps 744 mmHg 71%
    20:00 +16°C° 0 mm 3 mps 744 mmHg 78%
    21:00 +14°C° 0 mm 3 mps 744 mmHg 81%
    22:00 +13°C° 0 mm 3 mps 744 mmHg 85%
    23:00 +13°C° 0 mm 3 mps 744 mmHg 89%

    Day after tomorrow, 25 July, Thursday

    Time Temperature Precipitation Wind Pressure Humidity
    00:00 +12°C° 0 mm 3 mps 744 mmHg 88%
    01:00 +12°C° 0 mm 3 mps 743 mmHg 88%
    02:00 +12°C° 0 mm 3 mps 743 mmHg 88%
    03:00 +11°C° 0 mm 3 mps 743 mmHg 89%
    04:00 +11°C° 0 mm 3 mps 743 mmHg 90%
    05:00 +11°C° 0 mm 3 mps 743 mmHg 92%
    06:00 +12°C° 0.6 mm 3 mps 743 mmHg 93%
    07:00 +12°C° 0.6 mm 3 mps 743 mmHg 95%
    08:00 +12°C° 0.6 mm 3 mps 743 mmHg 96%
    09:00 +12°C° 0.6 mm 3 mps 743 mmHg 96%
    10:00 +14°C° 0.6 mm 2 mps 743 mmHg 97%
    11:00 +14°C° 0.6 mm 2 mps 743 mmHg 97%
    12:00 +16°C° 0 mm 1 mps 743 mmHg 91%
    13:00 +19°C° 0 mm 1 mps 743 mmHg 85%
    14:00 +20°C° 0 mm 1 mps 743 mmHg 78%
    15:00 +20°C° 0.1 mm 2 mps 744 mmHg 78%
    16:00 +21°C° 0.1 mm 2 mps 744 mmHg 78%
    17:00 +23°C° 0.1 mm 2 mps 744 mmHg 77%
    18:00 +20°C° 0.3 mm 2 mps 744 mmHg 83%
    19:00 +19°C° 0.3 mm 2 mps 744 mmHg 89%
    20:00 +18°C° 0.3 mm 2 mps 744 mmHg 95%
    21:00 +18°C° 0 mm 2 mps 745 mmHg 95%
    22:00 +17°C° 0 mm 3 mps 745 mmHg 96%
    23:00 +17°C° 0 mm 3 mps 745 mmHg 97%

    26 July, Friday

    Time Temperature Precipitation Wind Pressure Humidity
    00:00 +17°C° 0 mm 3 mps 745 mmHg 97%
    01:00 +17°C° 0 mm 3 mps 746 mmHg 97%
    02:00 +17°C° 0 mm 3 mps 746 mmHg 97%
    03:00 +17°C° 0 mm 3 mps 746 mmHg 97%
    04:00 +17°C° 0 mm 3 mps 746 mmHg 97%
    05:00 +17°C° 0 mm 3 mps 747 mmHg 97%
    06:00 +18°C° 0 mm 3 mps 747 mmHg 91%
    07:00 +19°C° 0 mm 4 mps 747 mmHg 86%
    08:00 +20°C° 0 mm 5 mps 747 mmHg 80%
    09:00 +22°C° 0 mm 4 mps 747 mmHg 73%
    10:00 +25°C° 0 mm 4 mps 748 mmHg 66%
    11:00 +26°C° 0 mm 4 mps 748 mmHg 59%
    12:00 +27°C° 0 mm 4 mps 748 mmHg 57%
    13:00 +28°C° 0 mm 4 mps 747 mmHg 54%
    14:00 +28°C° 0 mm 4 mps 747 mmHg 52%
    15:00 +28°C° 0 mm 4 mps 747 mmHg 55%
    16:00 +28°C° 0 mm 3 mps 747 mmHg 58%
    17:00 +28°C° 0 mm 3 mps 747 mmHg 62%
    18:00 +26°C° 0 mm 2 mps 747 mmHg 69%
    19:00 +24°C° 0 mm 2 mps 747 mmHg 77%
    20:00 +21°C° 0 mm 2 mps 747 mmHg 84%
    21:00 +20°C° 0 mm 2 mps 747 mmHg 87%
    22:00 +19°C° 0 mm 2 mps 747 mmHg 90%
    23:00 +19°C° 0 mm 2 mps 747 mmHg 93%

    27 July, Saturday

    Time Temperature Precipitation Wind Pressure Humidity
    00:00 +18°C° 0 mm 2 mps 747 mmHg 94%
    01:00 +18°C° 0 mm 2 mps 747 mmHg 94%
    02:00 +17°C° 0 mm 2 mps 747 mmHg 95%
    03:00 +17°C° 0 mm 2 mps 747 mmHg 94%
    04:00 +17°C° 0 mm 2 mps 747 mmHg 92%
    05:00 +17°C° 0 mm 2 mps 747 mmHg 91%
    06:00 +19°C° 0 mm 2 mps 747 mmHg 84%
    07:00 +21°C° 0 mm 2 mps 747 mmHg 78%
    08:00 +24°C° 0 mm 2 mps 747 mmHg 71%
    09:00 +26°C° 0 mm 2 mps 747 mmHg 66%
    10:00 +27°C° 0 mm 2 mps 747 mmHg 60%
    11:00 +28°C° 0 mm 3 mps 747 mmHg 54%
    12:00 +28°C° 0.4 mm 3 mps 746 mmHg 58%
    13:00 +28°C° 0.4 mm 3 mps 746 mmHg 62%
    14:00 +28°C° 0.4 mm 3 mps 745 mmHg 66%
    15:00 +28°C° 0 mm 3 mps 745 mmHg 63%
    16:00 +28°C° 0 mm 3 mps 745 mmHg 61%
    17:00 +28°C° 0 mm 3 mps 745 mmHg 58%
    18:00 +26°C° 0 mm 3 mps 745 mmHg 64%
    19:00 +24°C° 0 mm 3 mps 744 mmHg 70%
    20:00 +21°C° 0 mm 2 mps 744 mmHg 76%
    21:00 +20°C° 0 mm 2 mps 744 mmHg 80%
    22:00 +19°C° 0 mm 2 mps 744 mmHg 83%
    23:00 +19°C° 0 mm 2 mps 744 mmHg 86%

    28 July, Sunday

    Time Temperature Precipitation Wind Pressure Humidity
    00:00 +18°C° 0 mm 2 mps 744 mmHg 87%
    01:00 +18°C° 0 mm 2 mps 743 mmHg 89%
    02:00 +18°C° 0 mm 2 mps 743 mmHg 90%
    03:00 +18°C° 0 mm 3 mps 743 mmHg 91%
    04:00 +18°C° 0 mm 3 mps 743 mmHg 92%
    05:00 +18°C° 0 mm 3 mps 743 mmHg 94%
    06:00 +18°C° 0 mm 3 mps 744 mmHg 89%
    07:00 +19°C° 0 mm 3 mps 744 mmHg 84%
    08:00 +19°C° 0 mm 4 mps 744 mmHg 79%
    09:00 +19°C° 0 mm 4 mps 745 mmHg 75%
    10:00 +19°C° 0 mm 4 mps 745 mmHg 72%
    11:00 +19°C° 0 mm 4 mps 745 mmHg 68%
    12:00 +20°C° 0 mm 4 mps 745 mmHg 62%
    13:00 +21°C° 0 mm 4 mps 745 mmHg 57%
    14:00 +21°C° 0 mm 4 mps 745 mmHg 51%
    15:00 +21°C° 0 mm 4 mps 746 mmHg 49%
    16:00 +21°C° 0 mm 4 mps 746 mmHg 47%
    17:00 +21°C° 0 mm 4 mps 746 mmHg 44%
    18:00 +19°C° 0 mm 3 mps 746 mmHg 52%
    19:00 +17°C° 0 mm 3 mps 746 mmHg 60%
    20:00 +15°C° 0 mm 2 mps 746 mmHg 68%
    21:00 +14°C° 0 mm 2 mps 747 mmHg 71%
    22:00 +12°C° 0 mm 2 mps 747 mmHg 73%
    23:00 +10°C° 0 mm 2 mps 747 mmHg 75%
    Show more